FW5480 Weather Reports


Display with metric or nautical units.
time (UTC)temp
F
wind
direction
speed
MPH
gust
MPH
rain 1hr
in
rain 24hr
in
rain mn
in
humidity
%
barometer
mb
20260506203516 56 0.0 2.0 0.06 0.16 0.16 95 1003.8
20260506202515 57 315 1.0 4.0 0.06 0.15 0.15 95 1003.9
20260506201515 57 0.0 1.0 0.06 0.14 0.14 95 1004.2
20260506200515 57 315 1.0 6.0 0.07 0.14 0.14 95 1004.2
20260506195517 57 0.0 3.0 0.05 0.12 0.12 95 1004.4
20260506194515 57 0.0 3.0 0.05 0.11 0.11 95 1004.4
20260506193515 57 315 1.0 4.0 0.04 0.10 0.10 95 1004.4
20260506192515 57 315 1.0 4.0 0.04 0.09 0.09 95 1004.7
20260506191535 57 0.0 1.0 0.03 0.08 0.08 94 1004.8
20260506190537 57 315 1.0 4.0 0.02 0.07 0.07 94 1004.6
20260506185515 58 0.0 2.0 0.03 0.07 0.07 94 1004.8
20260506184515 58 0.0 2.0 0.03 0.06 0.06 93 1004.8
20260506183535 58 0.0 2.0 0.05 0.06 0.06 93 1004.9
20260506182515 59 0.0 2.0 0.04 0.05 0.05 93 1005.0
20260506181515 59 0.0 2.0 0.05 0.05 0.05 92 1004.9
20260506180555 59 0.0 2.0 0.05 0.05 0.05 92 1004.9
20260506175515 60 0.0 3.0 0.04 0.04 0.04 92 1005.2
20260506174515 60 0.0 1.0 0.03 0.03 0.03 91 1005.4
20260506173515 60 0.0 2.0 0.01 0.01 0.01 90 1005.7
20260506172535 61 0.0 1.0 0.01 0.01 0.01 89 1005.9
20260506171536 61 315 1.0 3.0 0.00 0.00 0.00 86 1005.9
20260506170515 62 0.0 2.0 0.00 0.00 0.00 83 1006.1
20260506165515 63 0.0 2.0 0.00 0.00 0.00 80 1006.0
20260506164515 64 315 1.0 5.0 0.00 0.00 0.00 78 1006.0
20260506163515 64 0.0 3.0 0.00 0.00 0.00 77 1006.0
20260506162515 64 0.0 2.0 0.00 0.00 0.00 78 1006.2
20260506161515 64 0.0 2.0 0.00 0.00 0.00 78 1006.4
20260506160515 63 315 1.0 2.0 0.00 0.00 0.00 79 1006.5
20260506155515 63 315 1.0 2.0 0.00 0.00 0.00 79 1006.7
20260506154515 62 0.0 2.0 0.00 0.00 0.00 80 1006.9
20260506153515 62 0.0 4.0 0.00 0.00 0.00 80 1006.9
20260506152515 62 315 1.0 3.0 0.00 0.00 0.00 79 1007.2
20260506151515 62 0.0 2.0 0.00 0.00 0.00 80 1007.2
20260506150515 62 0.0 1.0 0.00 0.00 0.00 81 1007.3
20260506145517 62 68 1.0 7.0 0.00 0.00 0.00 81 1007.3
20260506144517 61 68 1.0 5.0 0.00 0.00 0.00 81 1007.3
20260506143517 62 68 1.0 3.0 0.00 0.00 0.00 81 1007.3
20260506142517 62 0.0 3.0 0.00 0.00 0.00 81 1007.2
20260506141515 61 68 1.0 6.0 0.00 0.00 0.00 81 1007.3
20260506140517 61 68 1.0 3.0 0.00 0.00 0.00 82 1007.3
20260506135516 61 68 2.0 5.0 0.00 0.00 0.00 82 1007.0
20260506134517 61 0.0 1.0 0.00 0.00 0.00 82 1007.1
20260506133517 61 68 1.0 3.0 0.00 0.00 0.00 82 1007.1
20260506132517 61 68 1.0 5.0 0.00 0.00 0.00 82 1007.0
20260506131517 61 135 1.0 6.0 0.00 0.00 0.00 82 1007.3
20260506130517 61 135 1.0 3.0 0.00 0.00 0.00 83 1007.3
20260506125517 60 0.0 2.0 0.00 0.00 0.00 85 1007.4
20260506124517 59 135 1.0 3.0 0.00 0.00 0.00 85 1007.5
20260506123517 59 135 1.0 3.0 0.00 0.00 0.00 86 1007.6
20260506122517 59 135 1.0 4.0 0.00 0.00 0.00 86 1007.7
20260506121516 58 0.0 2.0 0.00 0.00 0.00 87 1007.6
20260506120517 58 0.0 2.0 0.00 0.00 0.00 87 1007.8
20260506115517 58 0.0 2.0 0.00 0.00 0.00 88 1007.6
20260506114517 57 135 1.0 3.0 0.00 0.00 0.00 88 1007.6
20260506113537 57 135 1.0 2.0 0.00 0.00 0.00 88 1007.8
20260506112517 57 0.0 2.0 0.00 0.00 0.00 88 1007.7
20260506111516 57 135 1.0 3.0 0.00 0.00 0.00 89 1007.8
20260506110517 56 135 1.0 4.0 0.00 0.00 0.00 90 1008.1
20260506105517 56 0.0 3.0 0.00 0.00 0.00 90 1008.1
20260506104536 56 68 1.0 2.0 0.00 0.00 0.00 90 1008.2
20260506103517 56 0.0 2.0 0.00 0.00 0.00 90 1008.1
20260506102516 55 68 1.0 2.0 0.00 0.00 0.00 91 1007.7
20260506101537 55 68 1.0 2.0 0.00 0.00 0.00 91 1008.0
20260506100516 54 0.0 1.0 0.00 0.00 0.00 91 1007.7
20260506095516 54 0.0 2.0 0.00 0.00 0.00 90 1007.8
20260506094516 54 68 1.0 2.0 0.00 0.00 0.00 90 1007.9
20260506093516 54 68 1.0 2.0 0.00 0.00 0.00 89 1007.9
20260506092543 55 68 2.0 8.0 0.00 0.00 0.00 89 1007.9
20260506091518 55 68 1.0 2.0 0.00 0.00 0.00 89 1008.0
20260506090517 55 0.0 2.0 0.00 0.00 0.00 88 1008.0
20260506085516 55 68 1.0 6.0 0.00 0.00 0.00 88 1007.9
20260506084516 55 0.0 1.0 0.00 0.00 0.00 88 1008.1
20260506083516 55 135 1.0 3.0 0.00 0.00 0.00 88 1008.2
20260506082536 55 0.0 2.0 0.00 0.00 0.00 88 1008.1
20260506081516 55 0.0 2.0 0.00 0.00 0.00 88 1008.2
20260506080516 55 0.0 1.0 0.00 0.00 0.00 87 1008.2
20260506073516 56 0.0 1.0 0.00 0.00 0.00 86 1008.3
20260506072516 56 0.0 2.0 0.00 0.00 0.00 86 1008.4
20260506071516 56 0.0 1.0 0.00 0.00 0.00 84 1008.3
20260506070516 56 0.0 2.0 0.00 0.00 0.00 84 1008.4
20260506062516 57 0.0 2.0 0.00 0.00 0.00 81 1008.3
20260506061516 57 135 1.0 2.0 0.00 0.00 0.00 81 1008.2
20260506060516 58 135 1.0 2.0 0.00 0.00 0.00 80 1008.3
20260506050516 58 0.0 1.0 0.00 0.00 0.00 77 1008.6
20260506044517 59 68 1.0 2.0 0.00 0.00 0.00 77 1008.6
20260506043537 59 0.0 1.0 0.00 0.00 0.00 76 1008.6
20260506042516 59 68 1.0 3.0 0.00 0.00 0.00 75 1008.6
20260506041516 59 68 1.0 2.0 0.00 0.00 0.00 75 1008.7
20260506040516 59 0.0 2.0 0.00 0.00 0.00 75 1008.6
20260506035537 59 68 1.0 3.0 0.00 0.00 0.00 75 1008.6
20260506034516 59 68 1.0 3.0 0.00 0.00 0.00 74 1008.6
20260506033536 59 68 1.0 3.0 0.00 0.00 0.00 74 1008.5
20260506032516 59 68 1.0 3.0 0.00 0.00 0.00 73 1008.5
20260506031516 59 68 1.0 3.0 0.00 0.00 0.00 73 1008.5
20260506030517 60 0.0 3.0 0.00 0.00 0.00 73 1008.6
20260506025516 60 68 1.0 2.0 0.00 0.00 0.00 72 1008.6
20260506024517 60 0.0 2.0 0.00 0.00 0.00 71 1008.5
20260506023516 61 68 1.0 2.0 0.00 0.00 0.00 70 1008.4
20260506022516 61 68 1.0 2.0 0.00 0.00 0.00 70 1008.3
20260506021517 61 68 1.0 2.0 0.00 0.00 0.00 70 1008.2
20260506020516 61 68 1.0 5.0 0.00 0.00 0.00 70 1008.2
20260506015516 61 68 1.0 3.0 0.00 0.00 0.00 70 1008.1
20260506014516 62 68 1.0 5.0 0.00 0.00 0.00 69 1008.1
20260506013516 62 68 1.0 4.0 0.00 0.00 0.00 69 1008.0
20260506012536 62 68 1.0 2.0 0.00 0.00 0.00 68 1007.9
20260506011516 63 0.0 2.0 0.00 0.00 0.00 67 1007.9
20260506010516 64 68 1.0 5.0 0.00 0.00 0.00 65 1007.8
20260506005515 64 315 1.0 4.0 0.00 0.00 0.00 65 1007.8
20260506004516 65 0.0 3.0 0.00 0.00 0.00 64 1007.7
20260506003517 65 0.0 2.0 0.00 0.00 0.00 63 1007.4
20260506002516 66 135 1.0 4.0 0.00 0.00 0.00 62 1007.0
20260506001516 66 135 1.0 4.0 0.00 0.00 0.00 61 1006.7
20260506000516 67 135 1.0 3.0 0.00 0.00 0.00 61 1006.4
20260505235516 67 135 1.0 3.0 0.00 0.00 0.00 59 1006.3
20260505234516 68 135 1.0 4.0 0.00 0.00 0.00 59 1006.2
20260505233516 68 158 1.0 3.0 0.00 0.00 0.00 58 1006.0
20260505232516 69 135 2.0 6.0 0.00 0.00 0.00 57 1005.9
20260505231536 69 0.0 2.0 0.00 0.00 0.00 56 1005.5
20260505230516 70 315 2.0 7.0 0.00 0.00 0.00 55 1005.5
20260505225516 70 315 1.0 5.0 0.00 0.00 0.00 54 1005.4
20260505224516 71 315 1.0 5.0 0.00 0.00 0.00 54 1005.3
20260505223516 72 315 1.0 6.0 0.00 0.00 0.00 51 1005.1
20260505222517 73 315 2.0 4.0 0.00 0.00 0.00 50 1005.1
20260505221516 73 68 2.0 4.0 0.00 0.00 0.00 49 1005.0
20260505220517 73 90 3.0 7.0 0.00 0.00 0.00 49 1005.1
20260505215516 74 68 2.0 11.0 0.00 0.00 0.00 49 1005.0
20260505214516 75 68 2.0 8.0 0.00 0.00 0.00 48 1004.8
20260505213515 74 203 2.0 5.0 0.00 0.00 0.00 47 1004.5
20260505212516 75 90 4.0 13.0 0.00 0.00 0.00 47 1004.6
20260505211515 75 90 2.0 6.0 0.00 0.00 0.00 47 1004.7
20260505210517 76 225 2.0 6.0 0.00 0.00 0.00 46 1004.7
20260505205516 76 180 2.0 5.0 0.00 0.00 0.00 45 1004.6
20260505204517 77 315 2.0 4.0 0.00 0.00 0.00 44 1004.6